Hourly Weather Ordino

Today, 29 September, Tuesday

Time Temperature Precipitation Wind Pressure Humidity
00:00 +6°C° 0 mm 1 mps 634 mmHg 79%
01:00 +6°C° 0 mm 1 mps 634 mmHg 77%
02:00 +6°C° 0 mm 1 mps 633 mmHg 75%
03:00 +6°C° 0 mm 1 mps 633 mmHg 73%
04:00 +7°C° 0 mm 1 mps 633 mmHg 70%
05:00 +7°C° 0 mm 1 mps 633 mmHg 68%
06:00 +7°C° 0 mm 1 mps 634 mmHg 67%
07:00 +9°C° 0 mm 1 mps 635 mmHg 64%
08:00 +11°C° 0 mm 1 mps 635 mmHg 61%
09:00 +13°C° 0 mm 0 mps 636 mmHg 58%
10:00 +15°C° 0 mm 1 mps 637 mmHg 54%
11:00 +16°C° 0 mm 1 mps 637 mmHg 51%
12:00 +19°C° 0 mm 1 mps 637 mmHg 47%
13:00 +18°C° 0 mm 1 mps 637 mmHg 49%
14:00 +18°C° 0 mm 1 mps 636 mmHg 51%
15:00 +18°C° 0 mm 1 mps 635 mmHg 54%
16:00 +14°C° 0 mm 1 mps 635 mmHg 63%
17:00 +12°C° 0 mm 1 mps 634 mmHg 72%
18:00 +9°C° 0 mm 0 mps 633 mmHg 81%
19:00 +9°C° 0 mm 1 mps 633 mmHg 80%
20:00 +9°C° 0 mm 1 mps 633 mmHg 80%
21:00 +9°C° 0 mm 1 mps 633 mmHg 79%
22:00 +9°C° 0 mm 1 mps 633 mmHg 77%
23:00 +8°C° 0 mm 1 mps 633 mmHg 76%

Tomorrow, 30 September, Wednesday

Time Temperature Precipitation Wind Pressure Humidity
00:00 +8°C° 0 mm 1 mps 633 mmHg 74%
01:00 +8°C° 0 mm 1 mps 632 mmHg 72%
02:00 +8°C° 0 mm 1 mps 632 mmHg 71%
03:00 +8°C° 0 mm 1 mps 632 mmHg 69%
04:00 +8°C° 0 mm 1 mps 632 mmHg 69%
05:00 +8°C° 0 mm 1 mps 632 mmHg 70%
06:00 +8°C° 0 mm 1 mps 632 mmHg 70%
07:00 +11°C° 0 mm 1 mps 633 mmHg 64%
08:00 +14°C° 0 mm 1 mps 634 mmHg 57%
09:00 +16°C° 0 mm 1 mps 635 mmHg 50%
10:00 +18°C° 0 mm 1 mps 635 mmHg 48%
11:00 +19°C° 0 mm 1 mps 635 mmHg 45%
12:00 +19°C° 0 mm 2 mps 635 mmHg 42%
13:00 +19°C° 0 mm 2 mps 634 mmHg 42%
14:00 +18°C° 0 mm 2 mps 634 mmHg 43%
15:00 +18°C° 0 mm 2 mps 633 mmHg 44%
16:00 +15°C° 0 mm 1 mps 632 mmHg 54%
17:00 +13°C° 0 mm 1 mps 631 mmHg 64%
18:00 +9°C° 0 mm 0 mps 630 mmHg 74%
19:00 +9°C° 0 mm 0 mps 630 mmHg 74%
20:00 +9°C° 0 mm 1 mps 631 mmHg 73%
21:00 +9°C° 0 mm 1 mps 631 mmHg 73%
22:00 +9°C° 0 mm 1 mps 630 mmHg 72%
23:00 +8°C° 0 mm 1 mps 630 mmHg 70%

Day after tomorrow, 1 October, Thursday

Time Temperature Precipitation Wind Pressure Humidity
00:00 +8°C° 0 mm 1 mps 629 mmHg 69%
01:00 +8°C° 0 mm 1 mps 629 mmHg 68%
02:00 +8°C° 0 mm 1 mps 629 mmHg 68%
03:00 +8°C° 0 mm 1 mps 628 mmHg 67%
04:00 +8°C° 0 mm 1 mps 628 mmHg 68%
05:00 +8°C° 0 mm 1 mps 628 mmHg 68%
06:00 +7°C° 0 mm 1 mps 627 mmHg 68%
07:00 +10°C° 0 mm 1 mps 628 mmHg 63%
08:00 +12°C° 0 mm 1 mps 629 mmHg 58%
09:00 +14°C° 0 mm 1 mps 630 mmHg 54%
10:00 +15°C° 0 mm 2 mps 630 mmHg 54%
11:00 +15°C° 0 mm 2 mps 630 mmHg 53%
12:00 +16°C° 0 mm 3 mps 630 mmHg 53%
13:00 +14°C° 0 mm 3 mps 629 mmHg 58%
14:00 +13°C° 0 mm 3 mps 629 mmHg 63%
15:00 +13°C° 0 mm 3 mps 628 mmHg 68%
16:00 +12°C° 0.1 mm 2 mps 628 mmHg 75%
17:00 +10°C° 0.1 mm 2 mps 627 mmHg 82%
18:00 +10°C° 0.1 mm 1 mps 627 mmHg 89%
19:00 +9°C° 0 mm 1 mps 626 mmHg 89%
20:00 +9°C° 0 mm 1 mps 626 mmHg 90%
21:00 +8°C° 0 mm 1 mps 626 mmHg 90%
22:00 +7°C° 0 mm 2 mps 625 mmHg 89%
23:00 +7°C° 0 mm 2 mps 624 mmHg 88%

2 October, Friday

Time Temperature Precipitation Wind Pressure Humidity
00:00 +8°C° 0 mm 3 mps 623 mmHg 87%
01:00 +8°C° 0 mm 3 mps 622 mmHg 88%
02:00 +8°C° 0 mm 3 mps 621 mmHg 88%
03:00 +7°C° 0 mm 4 mps 620 mmHg 89%
04:00 +7°C° 0.1 mm 4 mps 620 mmHg 90%
05:00 +7°C° 0.1 mm 3 mps 619 mmHg 91%
06:00 +7°C° 0.1 mm 3 mps 618 mmHg 92%
07:00 +7°C° 0.9 mm 3 mps 618 mmHg 91%
08:00 +7°C° 0.9 mm 4 mps 617 mmHg 91%
09:00 +7°C° 0.9 mm 4 mps 617 mmHg 91%
10:00 +7°C° 1.7 mm 3 mps 617 mmHg 93%
11:00 +5°C° 1.7 mm 3 mps 617 mmHg 95%
12:00 +5°C° 1.7 mm 3 mps 617 mmHg 98%
13:00 +4°C° 1.5 mm 3 mps 616 mmHg 96%
14:00 +4°C° 1.5 mm 2 mps 616 mmHg 94%
15:00 +4°C° 1.5 mm 2 mps 616 mmHg 92%
16:00 +3°C° 0.9 mm 2 mps 616 mmHg 93%
17:00 +3°C° 0.9 mm 1 mps 617 mmHg 93%
18:00 +3°C° 0.9 mm 1 mps 617 mmHg 94%
19:00 +2°C° 0.5 mm 1 mps 617 mmHg 94%
20:00 +1°C° 0.5 mm 1 mps 618 mmHg 94%
21:00 +1°C° 0.5 mm 1 mps 618 mmHg 94%
22:00 0°C° 0 mm 1 mps 618 mmHg 93%
23:00 0°C° 0 mm 1 mps 618 mmHg 92%

3 October, Saturday

Time Temperature Precipitation Wind Pressure Humidity
00:00 -3°C° 0 mm 2 mps 618 mmHg 92%
01:00 -3°C° 0 mm 2 mps 617 mmHg 91%
02:00 -3°C° 0 mm 2 mps 617 mmHg 91%
03:00 -3°C° 0 mm 2 mps 617 mmHg 90%
04:00 -3°C° 0 mm 2 mps 617 mmHg 90%
05:00 -3°C° 0 mm 2 mps 617 mmHg 90%
06:00 -3°C° 0 mm 2 mps 617 mmHg 91%
07:00 -2°C° 0 mm 2 mps 618 mmHg 89%
08:00 0°C° 0 mm 3 mps 618 mmHg 88%
09:00 +1°C° 0 mm 3 mps 618 mmHg 87%
10:00 0°C° 0.3 mm 4 mps 618 mmHg 89%
11:00 0°C° 0.3 mm 4 mps 618 mmHg 91%
12:00 0°C° 0.3 mm 5 mps 618 mmHg 94%
13:00 0°C° 1 mm 4 mps 618 mmHg 94%
14:00 0°C° 1 mm 4 mps 618 mmHg 95%
15:00 0°C° 1 mm 4 mps 619 mmHg 96%
16:00 +1°C° 0.5 mm 3 mps 619 mmHg 96%
17:00 +1°C° 0.5 mm 3 mps 620 mmHg 96%
18:00 +2°C° 0.5 mm 2 mps 620 mmHg 96%
19:00 +2°C° 0 mm 2 mps 621 mmHg 95%
20:00 +3°C° 0 mm 1 mps 621 mmHg 94%
21:00 +2°C° 0 mm 1 mps 621 mmHg 93%
22:00 +2°C° 0 mm 1 mps 621 mmHg 93%
23:00 +2°C° 0 mm 1 mps 622 mmHg 93%

4 October, Sunday

Time Temperature Precipitation Wind Pressure Humidity
00:00 +1°C° 0 mm 1 mps 622 mmHg 93%
01:00 +1°C° 0 mm 1 mps 622 mmHg 94%
02:00 +1°C° 0 mm 2 mps 621 mmHg 95%
03:00 +1°C° 0 mm 2 mps 621 mmHg 96%
04:00 -1°C° 0 mm 2 mps 621 mmHg 95%
05:00 -1°C° 0 mm 3 mps 621 mmHg 94%
06:00 -2°C° 0 mm 3 mps 620 mmHg 93%
07:00 0°C° 0.1 mm 3 mps 621 mmHg 91%
08:00 +2°C° 0.1 mm 2 mps 621 mmHg 89%
09:00 +3°C° 0.1 mm 2 mps 621 mmHg 86%
10:00 +4°C° 0.1 mm 2 mps 622 mmHg 87%
11:00 +5°C° 0.1 mm 2 mps 622 mmHg 88%
12:00 +6°C° 0.1 mm 1 mps 622 mmHg 88%
13:00 +6°C° 0.5 mm 1 mps 622 mmHg 89%
14:00 +6°C° 0.5 mm 1 mps 622 mmHg 89%
15:00 +6°C° 0.5 mm 1 mps 622 mmHg 89%
16:00 +5°C° 0.4 mm 1 mps 622 mmHg 91%
17:00 +4°C° 0.4 mm 1 mps 622 mmHg 94%
18:00 +3°C° 0.4 mm 1 mps 623 mmHg 96%
19:00 +3°C° 0 mm 1 mps 623 mmHg 95%
20:00 +2°C° 0 mm 1 mps 623 mmHg 94%
21:00 +2°C° 0 mm 1 mps 623 mmHg 93%
22:00 +1°C° 0 mm 1 mps 623 mmHg 91%
23:00 +1°C° 0 mm 1 mps 623 mmHg 88%
Show more

We Need Your Consent

Meteoprog and our Service Providers may store and access personal data such as cookies, device identifiers or other similar technologies on your device and process such data to personalise content and ads, as well as provide social media features and to analyse the traffic.

  • Store and/or access information on your device

    Cookies, device identifiers or other information can be stored or accessed on your device for the purposes indicated above.

  • Personalised ads and content, ad and content measurement, audience insights, and products development

    Ads and content can be personalised based on a profile. More data can be added to better personalise ads and content. Ad and content performance can be measured. Insights about the audience who saw the ads and content can be derived. Such data can be used to develop or improve user’s experience, systems and software.

By clicking ‘I Agree’ you will allow the use of indicated cookies, device identifiers, web beacons or other similar technologies. Your settings can be changed in the browser on your device.

For certain purposes, legitimate interests may be relied on, rather than consent. You can read more about this in our Privacy and Cookie Policy.